STARLINK-3185, 51144

Orbit data source: Space-Track

STARLINK-3185, 51144 is a payload satellite owned by SpaceX/Seattle (US) in LEO that was launched on Wed, 19 Jan 2022 UTC via an FALCON 9 launch vehicle from the Air Force Eastern Test Range (AFETR). Payload-class satellites include a variety of spacecraft equipped with specific instruments for various scientific and technological missions. These include communications satellites like Starlink; space stations such as the ISS; scientific satellites like the Hubble; Earth observation satellites from companies like Planet Labs, Umbra, and HawkEye 360; GPS; miniature CubeSats for education and research; and military/defense satellites.

Loading next visibility...
Identifier
51144, 2022-005AS
Orbit
LEO
Country
Flag of USUS
Related business
Manufacturer
SpaceX/Seattle
Mission
Operational Commercial Communications
Bus & Motor
STARLINK, Unknown motor
Mass
297 kg wet, ~275 kg dry
Launch date (UTC)
2022-01-19 (4 years ago)
Launch vehicle
FALCON 9
Launch site
Air Force Eastern Test Range (AFETR)
Object type
Payload
Rocket body
Debris
Shape & HBR
Box + 1 Pan, 10.1 m
Radar Cross Section
13.562 m², Large (>1 m²)

Expand to show TLE details & history
Last TLE update: 8 hours ago

TLE from 8 hours ago
0 STARLINK-3185
1 51144U 22005AS  26094.27511433 -.00000975  00000-0 -43216-4 0  9994
2 51144  53.2150 184.2743 0001309  91.2718 268.8424 15.08833193232601
Epoch: 2026-04-04T06:36Z
TLE epoch observation values (Epoch: 2026-04-04T06:36:09.878Z)
Latitude
-0.00001°
Longitude
-107.3641°
Altitude
540.68 km
Speed
7.593 km/s
True Right ascension
12h 17m 05s
True Declination
0° 00' 00"
Sunlit
Object was in full shadow at epoch
Visualization orbit readout
Latitude
Unknown
Longitude
Unknown
Altitude
Unknown
Speed
Unknown
Apparent Right ascension
Unknown
Apparent Declination
Unknown
Sunlit
N/A
Visualization observer readout
Local Sidereal Time
20:40:16
Azimuth
Unknown
Elevation
Unknown
Doppler factor
Unknown
Orbital elements
Apogee altitude
540.915 km
Perigee altitude
539.104 km
Semi-major axis
6,918.147 km
Eccentricity
0.00013
Inclination
53.215°
RAAN
184.2743°
Arg. of periapsis
91.2718°
True anomaly
268.8274°
Mean anomaly
268.8424°
Eccentric anomaly
268.8349°
Mean motion
3.77189 °/min
Orbital period
95.44 mins
BSTAR
-0.000043216
Loading maneuver chart data...
Computing Atmospheric mass density...
Loading historical data...
Loading historical data...
Loading historical data...
Loading historical data...
Loading historical data...
Loading historical data...
Loading historical data...

Documentation

Showing up to 5 results
|